EZY96R LEAL-EGNT

Flight info

Callsign EZY96R
Flight time 2h 27m
Altitude 36000
Route MITOS N608 COMPI Y90 USKAR/N0440F380 N863 GIROM DCT GONUP DCT TUPAR UN861 ANG DCT AKIKI UN867 AVANT UM184 HEMEL/N0433F370 Q3 MOGLI/N0438F380 L613 MAMUL UY250 RIMTO
Aircraft A320/M-SDE3FGHIRWY/LB1

Departure

Time 2026-05-05 10:54
Airport Alicante-Elche Miguel Hernández Airport (LEAL)

Arrival

Time 2026-05-05 13:21
Airport Newcastle International Airport (EGNT)
Time Latitude Longitude Altitude Speed Heading
2026-05-05 10:28 38.28610 -0.55039 89 ft 0 kts 280°
2026-05-05 10:44 38.28608 -0.55017 89 ft 4 kts 276°
2026-05-05 10:45 38.28607 -0.54983 87 ft 4 kts 261°
2026-05-05 10:45 38.28615 -0.54953 90 ft 4 kts 221°
2026-05-05 10:45 38.28627 -0.54944 90 ft 1 kts 190°
2026-05-05 10:45 38.28630 -0.54944 91 ft 0 kts 190°
2026-05-05 10:47 38.28629 -0.54944 91 ft 0 kts 190°
2026-05-05 10:47 38.28594 -0.54952 90 ft 10 kts 189°
2026-05-05 10:47 38.28529 -0.54966 90 ft 9 kts 189°
2026-05-05 10:48 38.28475 -0.54977 89 ft 7 kts 189°
2026-05-05 10:48 38.28435 -0.54995 88 ft 5 kts 218°
2026-05-05 10:48 38.28422 -0.55028 88 ft 4 kts 266°
2026-05-05 10:48 38.28419 -0.55090 88 ft 10 kts 257°
2026-05-05 10:49 38.28372 -0.55179 88 ft 15 kts 233°
2026-05-05 10:49 38.28328 -0.55310 90 ft 15 kts 269°
2026-05-05 10:49 38.28340 -0.55424 93 ft 12 kts 280°
2026-05-05 10:49 38.28354 -0.55538 96 ft 16 kts 279°
2026-05-05 10:50 38.28380 -0.55715 101 ft 20 kts 281°
2026-05-05 10:50 38.28402 -0.55871 104 ft 16 kts 279°
2026-05-05 10:50 38.28419 -0.55995 107 ft 12 kts 280°
2026-05-05 10:50 38.28440 -0.56128 108 ft 20 kts 284°
2026-05-05 10:51 38.28462 -0.56309 111 ft 22 kts 279°
2026-05-05 10:51 38.28484 -0.56501 117 ft 22 kts 281°
2026-05-05 10:51 38.28515 -0.56705 119 ft 24 kts 279°
2026-05-05 10:51 38.28544 -0.56917 133 ft 27 kts 283°
2026-05-05 10:52 38.28580 -0.57151 143 ft 26 kts 279°
2026-05-05 10:52 38.28607 -0.57365 151 ft 23 kts 275°
2026-05-05 10:52 38.28513 -0.57439 155 ft 17 kts 191°
2026-05-05 10:52 38.28436 -0.57364 151 ft 18 kts 97°
2026-05-05 10:53 38.28408 -0.57177 143 ft 28 kts 99°
2026-05-05 10:53 38.28330 -0.56621 119 ft 99 kts 100°
2026-05-05 10:53 38.28183 -0.55515 98 ft 152 kts 100°
2026-05-05 10:53 38.27996 -0.54158 698 ft 152 kts 100°
2026-05-05 10:54 38.27826 -0.52833 1443 ft 151 kts 102°
2026-05-05 10:54 38.27713 -0.51447 2004 ft 162 kts 92°
2026-05-05 10:54 38.27801 -0.50011 2525 ft 168 kts 80°
2026-05-05 10:54 38.28107 -0.48476 2857 ft 190 kts 66°
2026-05-05 10:55 38.28741 -0.46880 3136 ft 213 kts 59°
2026-05-05 10:55 38.29537 -0.45177 3440 ft 232 kts 57°
2026-05-05 10:55 38.30446 -0.43341 3789 ft 257 kts 56°
2026-05-05 10:55 38.31462 -0.41346 4338 ft 275 kts 56°
2026-05-05 10:56 38.32505 -0.39300 5197 ft 281 kts 58°
2026-05-05 10:56 38.33317 -0.37009 6042 ft 286 kts 69°
2026-05-05 10:56 38.34054 -0.34629 6884 ft 291 kts 69°
2026-05-05 10:56 38.34803 -0.32201 7698 ft 296 kts 69°
2026-05-05 10:57 38.35563 -0.29728 8496 ft 302 kts 69°
2026-05-05 10:57 38.36341 -0.27206 9309 ft 308 kts 68°
2026-05-05 10:57 38.37156 -0.24693 10081 ft 313 kts 67°
2026-05-05 10:57 38.38041 -0.22043 10396 ft 336 kts 66°
2026-05-05 10:58 38.38996 -0.19218 10747 ft 355 kts 66°
2026-05-05 10:58 38.39988 -0.16279 11379 ft 363 kts 66°
2026-05-05 10:58 38.40990 -0.13299 12075 ft 368 kts 66°
2026-05-05 10:58 38.42005 -0.10268 12751 ft 374 kts 66°
2026-05-05 10:59 38.43220 -0.07304 13426 ft 379 kts 53°
2026-05-05 10:59 38.44937 -0.04795 14040 ft 381 kts 38°
2026-05-05 10:59 38.47106 -0.02875 14626 ft 380 kts 22°
2026-05-05 10:59 38.49571 -0.01702 15214 ft 376 kts
2026-05-05 11:00 38.52153 -0.01318 15817 ft 372 kts 354°
2026-05-05 11:00 38.53872 -0.01316 16224 ft 374 kts 353°
2026-05-05 11:00 38.56501 -0.01309 16843 ft 378 kts 353°
2026-05-05 11:00 38.59157 -0.01294 17455 ft 382 kts 353°
2026-05-05 11:01 38.61839 -0.01279 18061 ft 387 kts 353°
2026-05-05 11:01 38.64512 -0.01262 18595 ft 391 kts 353°
2026-05-05 11:01 38.67256 -0.01244 19111 ft 395 kts 353°
2026-05-05 11:01 38.70025 -0.01226 19631 ft 399 kts 353°
2026-05-05 11:02 38.72815 -0.01204 20182 ft 401 kts 353°
2026-05-05 11:02 38.75620 -0.01185 20383 ft 414 kts 353°
2026-05-05 11:02 38.78561 -0.01170 20509 ft 427 kts 353°
2026-05-05 11:02 38.81586 -0.01157 20639 ft 440 kts 353°
2026-05-05 11:03 38.84696 -0.01140 20754 ft 451 kts 353°
2026-05-05 11:03 38.87831 -0.01117 20881 ft 461 kts 354°
2026-05-05 11:03 38.91071 -0.01082 21050 ft 470 kts 354°
2026-05-05 11:03 38.94385 -0.01054 21178 ft 478 kts 354°
2026-05-05 11:04 38.97745 -0.01030 21299 ft 485 kts 354°
2026-05-05 11:04 39.01148 -0.01007 21494 ft 490 kts 354°
2026-05-05 11:04 39.04564 -0.00986 21760 ft 492 kts 354°
2026-05-05 11:04 39.07963 -0.00965 22038 ft 495 kts 354°
2026-05-05 11:05 39.11417 -0.00945 22325 ft 497 kts 354°
2026-05-05 11:05 39.14893 -0.00926 22614 ft 500 kts 354°
2026-05-05 11:05 39.18378 -0.00905 22877 ft 502 kts 354°
2026-05-05 11:05 39.21880 -0.00881 23143 ft 505 kts 354°
2026-05-05 11:06 39.25404 -0.00857 23403 ft 507 kts 354°
2026-05-05 11:06 39.28950 -0.00834 23632 ft 509 kts 354°
2026-05-05 11:06 39.32495 -0.00806 23843 ft 511 kts 354°
2026-05-05 11:06 39.36081 -0.00343 24051 ft 523 kts
2026-05-05 11:07 39.39597 0.00856 24206 ft 530 kts 11°
2026-05-05 11:07 39.43155 0.02180 24394 ft 532 kts 11°
2026-05-05 11:07 39.46736 0.03514 24598 ft 534 kts 11°
2026-05-05 11:07 39.50324 0.04846 24805 ft 536 kts 11°
2026-05-05 11:08 39.53878 0.06164 25208 ft 531 kts 10°
2026-05-05 11:08 39.57396 0.07477 26013 ft 521 kts 10°
2026-05-05 11:08 39.60857 0.08768 26853 ft 509 kts
2026-05-05 11:08 39.64250 0.10032 27453 ft 505 kts
2026-05-05 11:09 39.67606 0.11276 27826 ft 505 kts
2026-05-05 11:09 39.70971 0.12520 28462 ft 500 kts
2026-05-05 11:09 39.74314 0.13759 29146 ft 494 kts
2026-05-05 11:09 39.77602 0.14982 29839 ft 488 kts
2026-05-05 11:10 39.80856 0.16195 30501 ft 482 kts
2026-05-05 11:10 39.84018 0.17375 31105 ft 476 kts
2026-05-05 11:10 39.87192 0.18563 31730 ft 469 kts
2026-05-05 11:10 39.90312 0.19733 32369 ft 463 kts
2026-05-05 11:11 39.93393 0.20887 33025 ft 455 kts
2026-05-05 11:11 39.96392 0.22010 33456 ft 454 kts
2026-05-05 11:11 39.99447 0.23147 33589 ft 460 kts
2026-05-05 11:11 40.02546 0.24296 33731 ft 465 kts
2026-05-05 11:12 40.05673 0.25456 33914 ft 470 kts
2026-05-05 11:12 40.08844 0.26638 34055 ft 475 kts
2026-05-05 11:12 40.12043 0.27838 34176 ft 480 kts
2026-05-05 11:12 40.15270 0.29055 34296 ft 485 kts
2026-05-05 11:13 40.18538 0.30295 34419 ft 490 kts
2026-05-05 11:13 40.21828 0.31545 34539 ft 494 kts
2026-05-05 11:13 40.25101 0.32785 34660 ft 497 kts
2026-05-05 11:13 40.28451 0.34055 34822 ft 501 kts
2026-05-05 11:14 40.31827 0.35336 34941 ft 504 kts 10°
2026-05-05 11:14 40.35207 0.36619 35080 ft 507 kts
2026-05-05 11:14 40.38562 0.37891 35273 ft 508 kts
2026-05-05 11:14 40.41959 0.39179 35463 ft 508 kts
2026-05-05 11:15 40.45364 0.40473 35695 ft 508 kts
2026-05-05 11:15 40.48759 0.41766 35976 ft 507 kts 10°
2026-05-05 11:15 40.52146 0.43059 36255 ft 506 kts 10°
2026-05-05 11:15 40.55535 0.44358 36518 ft 505 kts 10°
2026-05-05 11:16 40.58912 0.45652 36775 ft 504 kts 10°
2026-05-05 11:16 40.62270 0.46937 37017 ft 503 kts 10°
2026-05-05 11:16 40.65634 0.48226 37255 ft 502 kts 10°
2026-05-05 11:16 40.68953 0.49501 37498 ft 501 kts 10°
2026-05-05 11:17 40.72310 0.50791 37723 ft 500 kts 10°
2026-05-05 11:17 40.75652 0.52074 37914 ft 500 kts 10°
2026-05-05 11:17 40.79008 0.53363 37961 ft 500 kts 10°
2026-05-05 11:18 40.85663 0.55916 37956 ft 499 kts 10°
2026-05-05 11:18 40.92345 0.58489 37978 ft 498 kts 10°
2026-05-05 11:19 40.98953 0.61052 37962 ft 497 kts 10°
2026-05-05 11:19 41.05600 0.63633 37953 ft 496 kts 10°
2026-05-05 11:20 41.12240 0.66214 37961 ft 497 kts 10°
2026-05-05 11:20 41.18851 0.68793 37978 ft 497 kts 11°
2026-05-05 11:21 41.25501 0.71390 37972 ft 497 kts 11°
2026-05-05 11:21 41.32053 0.73956 37961 ft 486 kts 11°
2026-05-05 11:22 41.38503 0.76483 37927 ft 484 kts 10°
2026-05-05 11:22 41.45000 0.79012 37950 ft 486 kts 10°
2026-05-05 11:23 41.51462 0.81551 37972 ft 486 kts 11°
2026-05-05 11:23 41.57970 0.84126 37978 ft 486 kts 11°
2026-05-05 11:24 41.64430 0.86682 37973 ft 487 kts 11°
2026-05-05 11:24 41.70953 0.89264 37971 ft 488 kts 11°
2026-05-05 11:25 41.77444 0.91830 38009 ft 488 kts 11°
2026-05-05 11:25 41.83973 0.94425 37973 ft 488 kts 11°
2026-05-05 11:26 41.90496 0.97030 37989 ft 489 kts 12°
2026-05-05 11:26 41.97031 0.99637 37996 ft 489 kts 11°
2026-05-05 11:27 42.03519 1.02230 38011 ft 489 kts 12°
2026-05-05 11:27 42.10058 1.04852 37998 ft 489 kts 11°
2026-05-05 11:28 42.16653 1.06227 37989 ft 475 kts 353°
2026-05-05 11:28 42.23198 1.05630 37959 ft 472 kts 349°
2026-05-05 11:29 42.29826 1.04896 37943 ft 482 kts 349°
2026-05-05 11:29 42.36580 1.04164 37938 ft 490 kts 349°
2026-05-05 11:30 42.43370 1.03444 37938 ft 492 kts 349°
2026-05-05 11:30 42.50227 1.02713 37936 ft 493 kts 349°
2026-05-05 11:31 42.57079 1.01974 37941 ft 493 kts 350°
2026-05-05 11:31 42.63878 1.01223 37963 ft 493 kts 350°
2026-05-05 11:32 42.70741 1.00464 37972 ft 493 kts 350°
2026-05-05 11:32 42.77528 0.99609 37973 ft 489 kts 344°
2026-05-05 11:33 42.84095 0.97459 37975 ft 484 kts 340°
2026-05-05 11:33 42.90647 0.95200 37967 ft 485 kts 340°
2026-05-05 11:34 42.97166 0.92951 37979 ft 486 kts 340°
2026-05-05 11:34 43.03737 0.90679 37994 ft 485 kts 340°
2026-05-05 11:35 43.10244 0.88420 37981 ft 484 kts 340°
2026-05-05 11:35 43.16783 0.86142 37989 ft 484 kts 340°
2026-05-05 11:36 43.23332 0.83855 38011 ft 485 kts 341°
2026-05-05 11:36 43.29883 0.81570 38004 ft 485 kts 341°
2026-05-05 11:37 43.36405 0.79293 37996 ft 485 kts 341°
2026-05-05 11:37 43.42966 0.76997 38016 ft 485 kts 341°
2026-05-05 11:38 43.49439 0.74571 37993 ft 482 kts 339°
2026-05-05 11:38 43.55808 0.71671 37991 ft 481 kts 336°
2026-05-05 11:39 43.62147 0.68606 37985 ft 482 kts 336°
2026-05-05 11:39 43.68481 0.65641 37998 ft 483 kts 338°
2026-05-05 11:40 43.74870 0.62742 37998 ft 483 kts 338°
2026-05-05 11:40 43.81220 0.59862 37987 ft 483 kts 338°
2026-05-05 11:41 43.87603 0.56933 37992 ft 482 kts 338°
2026-05-05 11:41 43.92914 0.54482 37993 ft 482 kts 338°
2026-05-05 11:42 43.99300 0.51526 37995 ft 482 kts 338°
2026-05-05 11:42 44.05636 0.48593 38004 ft 482 kts 338°
2026-05-05 11:43 44.12017 0.45636 38000 ft 482 kts 338°
2026-05-05 11:43 44.18398 0.42667 37995 ft 482 kts 338°
2026-05-05 11:44 44.24739 0.39715 38001 ft 482 kts 338°
2026-05-05 11:44 44.31142 0.36732 37992 ft 483 kts 338°
2026-05-05 11:45 44.37478 0.33762 37983 ft 483 kts 338°
2026-05-05 11:45 44.43889 0.30749 38007 ft 484 kts 338°
2026-05-05 11:46 44.50274 0.27741 37984 ft 484 kts 338°
2026-05-05 11:46 44.56637 0.24746 37986 ft 484 kts 338°
2026-05-05 11:47 44.63035 0.21727 37994 ft 484 kts 339°
2026-05-05 11:47 44.69425 0.18700 37984 ft 484 kts 339°
2026-05-05 11:48 44.79015 0.14146 37984 ft 484 kts 338°
2026-05-05 11:48 44.85408 0.11108 37985 ft 484 kts 339°
2026-05-05 11:49 44.91773 0.08078 37987 ft 485 kts 338°
2026-05-05 11:49 44.98158 0.05019 37974 ft 484 kts 338°
2026-05-05 11:50 45.04551 0.01947 37981 ft 484 kts 339°
2026-05-05 11:50 45.10934 -0.01128 37993 ft 484 kts 339°
2026-05-05 11:51 45.17281 -0.04192 37981 ft 484 kts 339°
2026-05-05 11:51 45.23666 -0.07278 37979 ft 483 kts 339°
2026-05-05 11:52 45.30011 -0.10350 37976 ft 483 kts 339°
2026-05-05 11:52 45.36381 -0.13434 37974 ft 482 kts 339°
2026-05-05 11:53 45.42744 -0.16529 37972 ft 482 kts 339°
2026-05-05 11:53 45.49055 -0.19606 37969 ft 481 kts 339°
2026-05-05 11:54 45.55410 -0.22706 37970 ft 481 kts 339°
2026-05-05 11:54 45.61717 -0.25798 37972 ft 481 kts 339°
2026-05-05 11:55 45.68072 -0.28924 37967 ft 482 kts 339°
2026-05-05 11:55 45.74421 -0.32059 37945 ft 483 kts 339°
2026-05-05 11:56 45.80754 -0.35186 37933 ft 483 kts 339°
2026-05-05 11:56 45.87133 -0.38336 37931 ft 483 kts 339°
2026-05-05 11:57 45.93471 -0.41477 37922 ft 484 kts 339°
2026-05-05 11:57 45.99848 -0.44651 37924 ft 484 kts 339°
2026-05-05 11:58 46.06230 -0.47838 37918 ft 484 kts 340°
2026-05-05 11:58 46.12579 -0.51006 37922 ft 485 kts 339°
2026-05-05 11:59 46.18964 -0.54200 37925 ft 485 kts 339°
2026-05-05 11:59 46.25338 -0.57398 37912 ft 484 kts 339°
2026-05-05 12:00 46.31716 -0.60611 37921 ft 484 kts 340°
2026-05-05 12:00 46.38047 -0.63811 37918 ft 485 kts 339°
2026-05-05 12:01 46.44528 -0.66531 37919 ft 486 kts 351°
2026-05-05 12:01 46.51260 -0.67665 37913 ft 486 kts 353°
2026-05-05 12:02 46.57957 -0.68793 37914 ft 486 kts 353°
2026-05-05 12:02 46.64699 -0.69934 37906 ft 487 kts 352°
2026-05-05 12:03 46.71449 -0.71075 37903 ft 487 kts 353°
2026-05-05 12:03 46.78156 -0.72209 37905 ft 487 kts 352°
2026-05-05 12:04 46.84902 -0.73348 37906 ft 487 kts 353°
2026-05-05 12:04 46.91650 -0.74488 37905 ft 487 kts 353°
2026-05-05 12:05 46.98353 -0.75632 37908 ft 487 kts 352°
2026-05-05 12:05 47.05103 -0.76778 37911 ft 487 kts 352°
2026-05-05 12:06 47.11850 -0.77940 37911 ft 487 kts 352°
2026-05-05 12:06 47.18544 -0.79097 37907 ft 486 kts 353°
2026-05-05 12:07 47.25273 -0.80250 37904 ft 486 kts 353°
2026-05-05 12:07 47.32001 -0.81414 37901 ft 485 kts 352°
2026-05-05 12:08 47.38712 -0.82577 37901 ft 485 kts 353°
2026-05-05 12:08 47.45382 -0.83732 37916 ft 484 kts 353°
2026-05-05 12:09 47.52083 -0.84893 37909 ft 483 kts 353°
2026-05-05 12:09 47.58744 -0.86282 37902 ft 482 kts 350°
2026-05-05 12:10 47.65296 -0.88099 37901 ft 481 kts 348°
2026-05-05 12:10 47.71870 -0.90000 37902 ft 481 kts 349°
2026-05-05 12:11 47.78457 -0.91792 37898 ft 481 kts 350°
2026-05-05 12:11 47.85090 -0.93530 37897 ft 482 kts 350°
2026-05-05 12:12 47.91662 -0.95264 37887 ft 482 kts 350°
2026-05-05 12:12 47.98283 -0.97039 37891 ft 482 kts 349°
2026-05-05 12:13 48.04910 -0.98829 37885 ft 483 kts 349°
2026-05-05 12:13 48.11534 -1.00616 37896 ft 483 kts 349°
2026-05-05 12:14 48.18119 -1.02395 37902 ft 482 kts 350°
2026-05-05 12:14 48.24746 -1.04189 37901 ft 483 kts 350°
2026-05-05 12:15 48.31357 -1.05985 37911 ft 483 kts 350°
2026-05-05 12:15 48.37940 -1.07779 37922 ft 483 kts 350°
2026-05-05 12:16 48.44530 -1.09580 37907 ft 472 kts 349°
2026-05-05 12:16 48.50891 -1.11315 37915 ft 460 kts 350°
2026-05-05 12:17 48.57147 -1.13027 37922 ft 458 kts 349°
2026-05-05 12:17 48.63432 -1.14766 37921 ft 457 kts 349°
2026-05-05 12:18 48.69698 -1.16489 37928 ft 458 kts 349°
2026-05-05 12:18 48.74894 -1.17922 37922 ft 454 kts 349°
2026-05-05 12:19 48.82130 -1.19938 37923 ft 455 kts 349°
2026-05-05 12:19 48.88372 -1.21680 37923 ft 456 kts 349°
2026-05-05 12:20 48.93568 -1.23122 37936 ft 456 kts 349°
2026-05-05 12:20 48.99822 -1.24861 37947 ft 456 kts 349°
2026-05-05 12:21 49.06077 -1.26611 37944 ft 457 kts 349°
2026-05-05 12:21 49.12343 -1.28376 37948 ft 458 kts 349°
2026-05-05 12:22 49.18578 -1.30137 37961 ft 458 kts 349°
2026-05-05 12:22 49.24866 -1.31911 37965 ft 459 kts 349°
2026-05-05 12:23 49.31116 -1.33673 37971 ft 459 kts 349°
2026-05-05 12:23 49.37395 -1.35450 37982 ft 458 kts 349°
2026-05-05 12:24 49.43670 -1.37234 37980 ft 457 kts 349°
2026-05-05 12:24 49.49948 -1.39031 37984 ft 458 kts 349°
2026-05-05 12:25 49.56167 -1.40815 37998 ft 456 kts 349°
2026-05-05 12:25 49.62491 -1.41383 38000 ft 455 kts
2026-05-05 12:26 49.68785 -1.40812 37993 ft 454 kts
2026-05-05 12:26 49.75108 -1.40254 37991 ft 454 kts
2026-05-05 12:27 49.81411 -1.39695 37992 ft 452 kts
2026-05-05 12:27 49.87655 -1.39143 37989 ft 451 kts
2026-05-05 12:28 49.93930 -1.38588 37983 ft 450 kts
2026-05-05 12:28 50.00039 -1.36848 37986 ft 449 kts 16°
2026-05-05 12:29 50.06062 -1.34145 37968 ft 449 kts 16°
2026-05-05 12:29 50.12066 -1.31418 37963 ft 449 kts 17°
2026-05-05 12:30 50.18042 -1.28678 37964 ft 450 kts 17°
2026-05-05 12:30 50.24069 -1.25933 37969 ft 450 kts 16°
2026-05-05 12:31 50.30085 -1.23187 37975 ft 449 kts 16°
2026-05-05 12:31 50.36050 -1.20444 37975 ft 449 kts 17°
2026-05-05 12:32 50.42052 -1.17684 37977 ft 449 kts 17°
2026-05-05 12:32 50.48065 -1.14907 37969 ft 449 kts 16°
2026-05-05 12:33 50.54073 -1.12124 37964 ft 449 kts 17°
2026-05-05 12:33 50.60043 -1.09360 37963 ft 450 kts 16°
2026-05-05 12:34 50.66075 -1.06560 37965 ft 450 kts 17°
2026-05-05 12:34 50.72056 -1.03772 37961 ft 450 kts 17°
2026-05-05 12:35 50.78088 -1.00956 37962 ft 450 kts 17°
2026-05-05 12:35 50.84088 -0.98141 37961 ft 450 kts 17°
2026-05-05 12:36 50.90079 -0.95317 37960 ft 450 kts 17°
2026-05-05 12:36 50.96100 -0.92479 37955 ft 451 kts 17°
2026-05-05 12:37 51.02123 -0.89636 37957 ft 451 kts 17°
2026-05-05 12:37 51.08112 -0.86802 37965 ft 451 kts 17°
2026-05-05 12:38 51.14146 -0.83933 37973 ft 451 kts 17°
2026-05-05 12:38 51.20137 -0.81070 37977 ft 452 kts 17°
2026-05-05 12:39 51.26174 -0.78185 37976 ft 452 kts 17°
2026-05-05 12:39 51.32204 -0.75295 37977 ft 452 kts 17°
2026-05-05 12:40 51.38185 -0.72439 37973 ft 452 kts 16°
2026-05-05 12:40 51.44215 -0.69548 37975 ft 452 kts 17°
2026-05-05 12:41 51.50245 -0.66630 37976 ft 452 kts 17°
2026-05-05 12:41 51.56270 -0.63704 37979 ft 452 kts 17°
2026-05-05 12:42 51.62259 -0.60788 37981 ft 452 kts 17°
2026-05-05 12:42 51.68285 -0.57851 37980 ft 452 kts 17°
2026-05-05 12:43 51.74319 -0.54916 37981 ft 452 kts 16°
2026-05-05 12:43 51.80174 -0.52059 37983 ft 452 kts 17°
2026-05-05 12:44 51.86209 -0.49086 37989 ft 452 kts 16°
2026-05-05 12:44 51.92194 -0.46135 37987 ft 452 kts 16°
2026-05-05 12:45 51.98220 -0.43163 37986 ft 452 kts 16°
2026-05-05 12:45 52.04235 -0.40183 37986 ft 452 kts 16°
2026-05-05 12:46 52.10257 -0.37193 37996 ft 451 kts 16°
2026-05-05 12:46 52.16224 -0.34220 38001 ft 450 kts 16°
2026-05-05 12:47 52.22226 -0.31218 37996 ft 450 kts 16°
2026-05-05 12:47 52.28330 -0.29161 37995 ft 447 kts
2026-05-05 12:48 52.31427 -0.29429 38006 ft 445 kts 349°
2026-05-05 12:48 52.34403 -0.30578 38000 ft 443 kts 339°
2026-05-05 12:48 52.39925 -0.34985 37987 ft 441 kts 330°
2026-05-05 12:49 52.45323 -0.39795 37981 ft 441 kts 330°
2026-05-05 12:49 52.50704 -0.44592 37978 ft 442 kts 330°
2026-05-05 12:50 52.56112 -0.49422 37988 ft 442 kts 330°
2026-05-05 12:50 52.61497 -0.54245 37990 ft 442 kts 330°
2026-05-05 12:51 52.66867 -0.59072 37990 ft 441 kts 329°
2026-05-05 12:51 52.72263 -0.63946 37993 ft 441 kts 329°
2026-05-05 12:52 52.77658 -0.68835 38023 ft 441 kts 329°
2026-05-05 12:52 52.82998 -0.73689 38024 ft 440 kts 329°
2026-05-05 12:53 52.88368 -0.78580 38023 ft 440 kts 329°
2026-05-05 12:53 52.93711 -0.83451 38021 ft 439 kts 329°
2026-05-05 12:54 53.01737 -0.90811 38029 ft 439 kts 329°
2026-05-05 12:55 53.07082 -0.95737 38023 ft 438 kts 329°
2026-05-05 12:55 53.12388 -1.00628 38022 ft 438 kts 329°
2026-05-05 12:56 53.17735 -1.05557 38033 ft 437 kts 329°
2026-05-05 12:56 53.23030 -1.10464 38030 ft 437 kts 329°
2026-05-05 12:57 53.28345 -1.15413 38035 ft 436 kts 329°
2026-05-05 12:57 53.33629 -1.20342 38031 ft 436 kts 329°
2026-05-05 12:57 53.36283 -1.22820 37869 ft 436 kts 329°
2026-05-05 12:58 53.38937 -1.25273 37488 ft 435 kts 332°
2026-05-05 12:58 53.41741 -1.27197 36828 ft 436 kts 342°
2026-05-05 12:58 53.44702 -1.28297 36345 ft 433 kts 352°
2026-05-05 12:58 53.47699 -1.28715 35830 ft 431 kts 355°
2026-05-05 12:59 53.50684 -1.29065 35295 ft 429 kts 355°
2026-05-05 12:59 53.53626 -1.29422 34769 ft 427 kts 355°
2026-05-05 12:59 53.56572 -1.30000 34225 ft 425 kts 348°
2026-05-05 13:00 53.62062 -1.33487 33150 ft 417 kts 328°
2026-05-05 13:00 53.64545 -1.36007 32636 ft 414 kts 328°
2026-05-05 13:01 53.71859 -1.43402 31115 ft 405 kts 328°
2026-05-05 13:01 53.74270 -1.45843 30618 ft 402 kts 327°
2026-05-05 13:01 53.76664 -1.48272 30144 ft 399 kts 327°
2026-05-05 13:01 53.79038 -1.50686 29621 ft 395 kts 327°
2026-05-05 13:02 53.81378 -1.53067 29163 ft 390 kts 327°
2026-05-05 13:02 53.82916 -1.54638 28890 ft 386 kts 327°
2026-05-05 13:02 53.85200 -1.56977 28427 ft 382 kts 327°
2026-05-05 13:02 53.87457 -1.59297 27992 ft 377 kts 326°
2026-05-05 13:03 53.90403 -1.62334 27418 ft 371 kts 326°
2026-05-05 13:03 53.91889 -1.63865 27127 ft 368 kts 326°
2026-05-05 13:03 53.94071 -1.66109 26693 ft 365 kts 326°
2026-05-05 13:03 53.96232 -1.68333 26251 ft 362 kts 326°
2026-05-05 13:04 53.98362 -1.70529 25816 ft 360 kts 326°
2026-05-05 13:04 54.00498 -1.72737 25347 ft 358 kts 326°
2026-05-05 13:04 54.02625 -1.74937 24887 ft 356 kts 326°
2026-05-05 13:04 54.04761 -1.77149 24318 ft 358 kts 326°
2026-05-05 13:05 54.06865 -1.79326 23779 ft 359 kts 325°
2026-05-05 13:05 54.09014 -1.81550 23161 ft 361 kts 325°
2026-05-05 13:05 54.11173 -1.83739 22597 ft 361 kts 329°
2026-05-05 13:05 54.13606 -1.85303 22030 ft 364 kts 344°
2026-05-05 13:06 54.16051 -1.85800 21499 ft 369 kts 358°
2026-05-05 13:06 54.18611 -1.85307 20938 ft 372 kts
2026-05-05 13:06 54.21159 -1.84501 20370 ft 373 kts
2026-05-05 13:06 54.23706 -1.83696 19946 ft 369 kts
2026-05-05 13:07 54.26210 -1.82911 19429 ft 369 kts
2026-05-05 13:07 54.28716 -1.82128 19044 ft 363 kts
2026-05-05 13:07 54.31180 -1.81356 18285 ft 358 kts
2026-05-05 13:07 54.33616 -1.80587 17498 ft 351 kts
2026-05-05 13:08 54.35970 -1.79841 17015 ft 338 kts
2026-05-05 13:08 54.38253 -1.79116 16513 ft 328 kts
2026-05-05 13:08 54.40456 -1.78419 16022 ft 322 kts
2026-05-05 13:08 54.42661 -1.77725 15361 ft 320 kts
2026-05-05 13:09 54.44854 -1.77035 14689 ft 321 kts
2026-05-05 13:09 54.47016 -1.76353 14039 ft 318 kts
2026-05-05 13:09 54.49185 -1.75663 13346 ft 314 kts
2026-05-05 13:09 54.51314 -1.74985 12693 ft 309 kts
2026-05-05 13:10 54.53410 -1.74318 12054 ft 303 kts
2026-05-05 13:10 54.55473 -1.73659 11522 ft 297 kts
2026-05-05 13:10 54.57489 -1.73014 11029 ft 292 kts
2026-05-05 13:10 54.59446 -1.72390 10529 ft 287 kts
2026-05-05 13:11 54.61399 -1.71765 10044 ft 286 kts
2026-05-05 13:11 54.63346 -1.71144 9506 ft 281 kts
2026-05-05 13:11 54.65238 -1.70541 9145 ft 268 kts
2026-05-05 13:11 54.67001 -1.69973 8940 ft 249 kts
2026-05-05 13:12 54.68678 -1.69500 9021 ft 242 kts 360°
2026-05-05 13:12 54.70344 -1.69743 9017 ft 239 kts 343°
2026-05-05 13:12 54.71883 -1.70787 8551 ft 236 kts 330°
2026-05-05 13:12 54.73332 -1.72128 8154 ft 233 kts 330°
2026-05-05 13:13 54.74756 -1.73423 7780 ft 236 kts 331°
2026-05-05 13:13 54.76209 -1.74737 7396 ft 233 kts 331°
2026-05-05 13:13 54.77636 -1.76026 7021 ft 231 kts 332°
2026-05-05 13:13 54.79055 -1.77307 6664 ft 227 kts 332°
2026-05-05 13:14 54.80457 -1.78578 6241 ft 225 kts 332°
2026-05-05 13:14 54.81833 -1.79824 5865 ft 225 kts 332°
2026-05-05 13:14 54.83230 -1.81088 5497 ft 223 kts 332°
2026-05-05 13:14 54.84602 -1.82331 5161 ft 226 kts 332°
2026-05-05 13:15 54.85985 -1.83587 4797 ft 221 kts 332°
2026-05-05 13:15 54.87348 -1.84826 4431 ft 220 kts 333°
2026-05-05 13:15 54.88691 -1.86053 4084 ft 216 kts 334°
2026-05-05 13:15 54.90030 -1.87280 3726 ft 218 kts 334°
2026-05-05 13:16 54.91371 -1.88506 3435 ft 214 kts 333°
2026-05-05 13:16 54.92658 -1.89684 3384 ft 204 kts 334°
2026-05-05 13:16 54.93889 -1.90809 3317 ft 196 kts 335°
2026-05-05 13:16 54.95074 -1.91894 3242 ft 189 kts 334°
2026-05-05 13:17 54.96243 -1.92652 3175 ft 174 kts 359°
2026-05-05 13:17 54.97338 -1.92152 3064 ft 159 kts 33°
2026-05-05 13:17 54.98024 -1.90658 2824 ft 160 kts 63°
2026-05-05 13:17 54.98482 -1.88916 2565 ft 156 kts 62°
2026-05-05 13:18 54.98959 -1.87245 2375 ft 150 kts 58°
2026-05-05 13:18 54.99398 -1.85651 2233 ft 141 kts 63°
2026-05-05 13:18 54.99699 -1.84126 2215 ft 131 kts 62°
2026-05-05 13:18 55.00012 -1.82652 2296 ft 128 kts 55°
2026-05-05 13:19 55.00432 -1.81270 2137 ft 126 kts 51°
2026-05-05 13:19 55.00838 -1.79884 2083 ft 128 kts 54°
2026-05-05 13:19 55.01230 -1.78482 1879 ft 129 kts 53°
2026-05-05 13:19 55.01620 -1.77081 1620 ft 128 kts 54°
2026-05-05 13:20 55.01983 -1.75686 1355 ft 128 kts 56°
2026-05-05 13:20 55.02369 -1.74303 1137 ft 126 kts 52°
2026-05-05 13:20 55.02784 -1.72931 812 ft 126 kts 57°
2026-05-05 13:20 55.03142 -1.71531 534 ft 128 kts 62°
2026-05-05 13:21 55.03489 -1.70107 271 ft 125 kts 61°
2026-05-05 13:21 55.03810 -1.68946 241 ft 83 kts 66°
2026-05-05 13:21 55.03999 -1.68241 240 ft 50 kts 65°
2026-05-05 13:21 55.04125 -1.67748 239 ft 42 kts 65°
2026-05-05 13:22 55.04215 -1.67417 242 ft 15 kts 60°
2026-05-05 13:22 55.04307 -1.67407 242 ft 16 kts 316°
2026-05-05 13:22 55.04330 -1.67592 242 ft 15 kts 265°
2026-05-05 13:22 55.04299 -1.67761 243 ft 14 kts 246°
2026-05-05 13:23 55.04258 -1.67909 243 ft 13 kts 242°
2026-05-05 13:23 55.04217 -1.68043 243 ft 12 kts 246°
2026-05-05 13:23 55.04187 -1.68175 243 ft 11 kts 247°
2026-05-05 13:23 55.04156 -1.68296 243 ft 10 kts 246°
2026-05-05 13:24 55.04127 -1.68406 243 ft 10 kts 244°
2026-05-05 13:24 55.04097 -1.68514 243 ft 10 kts 245°
2026-05-05 13:24 55.04070 -1.68613 244 ft 8 kts 244°
2026-05-05 13:24 55.04048 -1.68699 244 ft 7 kts 245°
2026-05-05 13:25 55.04024 -1.68789 244 ft 12 kts 246°
2026-05-05 13:25 55.03988 -1.68928 245 ft 12 kts 245°
2026-05-05 13:25 55.03955 -1.69054 246 ft 11 kts 245°
2026-05-05 13:25 55.03926 -1.69162 246 ft 9 kts 245°
2026-05-05 13:26 55.03902 -1.69253 247 ft 7 kts 245°
2026-05-05 13:26 55.03883 -1.69324 248 ft 6 kts 245°
2026-05-05 13:26 55.03868 -1.69381 248 ft 7 kts 245°
2026-05-05 13:26 55.03829 -1.69542 249 ft 16 kts 249°
2026-05-05 13:27 55.03796 -1.69732 251 ft 20 kts 257°
2026-05-05 13:27 55.03775 -1.69997 254 ft 21 kts 268°
2026-05-05 13:27 55.03777 -1.70240 256 ft 19 kts 275°
2026-05-05 13:27 55.03746 -1.70420 258 ft 15 kts 207°
2026-05-05 13:28 55.03648 -1.70441 259 ft 14 kts 185°
2026-05-05 13:28 55.03594 -1.70537 260 ft 11 kts 259°
2026-05-05 13:28 55.03593 -1.70659 261 ft 9 kts 273°
2026-05-05 13:28 55.03596 -1.70754 262 ft 6 kts 274°
2026-05-05 13:29 55.03621 -1.70792 262 ft 6 kts 357°
2026-05-05 13:29 55.03644 -1.70784 262 ft 2 kts
2026-05-05 13:29 55.03656 -1.70782 262 ft 0 kts
2026-05-05 13:29 55.03662 -1.70781 262 ft 0 kts